Regional Weather Roundup
Issued by NWS Albany, NY

Home | Current Version | Previous Version | Text Only | Print | Product List | Glossary On
Versions: 1 2 3 4 5 6 7 8 9 10 11 12 13 14 15 16 17 18 19 20 21 22 23 24 25 26 27
000
ASUS41 KALY 271110
RWRALY

NEW YORK STATE HOURLY WEATHER ROUNDUP
NATIONAL WEATHER SERVICE ALBANY NY
700 AM EDT THU APR 27 2017

NOTE: "FAIR" INDICATES FEW OR NO CLOUDS BELOW 12,000 FEET WITH NO
SIGNIFICANT WEATHER AND/OR NO OBSTRUCTIONS TO VISIBILITY.

NYZ032-033-038>043-046>054-057>066-NYZ062>081-082-084-271200-
EAST


CITY           SKY/WX    TMP DP  RH WIND       PRES   REMARKS
ALBANY         CLOUDY    60  54  80 SE3       29.87R
GLENS FALLS    CLOUDY    59  54  83 CALM      29.86R
POUGHKEEPSIE   CLOUDY    58  57  97 CALM      29.87R
NEWBURGH       CLOUDY    57  57 100 CALM      29.89R FOG
MONTGOMERY     CLOUDY    58  57  97 CALM      29.87R FOG
WHITE PLAINS   DRZL/FOG  58  56  93 CALM      29.88R VSB 1
ISLIP          CLOUDY    57  56  96 CALM      29.89R FOG
NEW YORK CITY  FOG       58  56  93 CALM      29.89R VSB 1
CENTRAL PARK   CLOUDY    59  58  96 CALM      29.92R FOG
$$

NYZ005>009-017-018-044>046-055-056-271200-
CENTRAL


CITY           SKY/WX    TMP DP  RH WIND       PRES   REMARKS
FULTON         CLEAR     60  55  83 VRB7      29.77R
SYRACUSE       PTCLDY    58  56  93 E8        29.78R
ROME           CLOUDY    58  56  93 E9        29.84S
ELMIRA         CLEAR     53  50  89 CALM      29.79S
BINGHAMTON     CLOUDY    56  55  97 SE6       29.84R FOG
MONTICELLO     CLOUDY    55  55 100 CALM      29.90R
$$

NYZ026>034-041>043-087-271200-
NORTH


CITY           SKY/WX    TMP DP  RH WIND       PRES   REMARKS
WATERTOWN      CLEAR     61  57  87 SE3       29.75R
FORT DRUM      NOT AVBL
OGDENSBURG     FOG       52  52  98 E3        29.78S VSB 1/4
MASSENA        FOG       52  52 100 E9        29.82R VSB 1/4
SARANAC LAKE   FOG       43  43 100 CALM      29.84R VSB 1/4
PLATTSBURGH    SUNNY     50  47  89 CALM      29.83R
$$

NYZ001>004-010>016-019>021-085-271200-
WEST


CITY           SKY/WX    TMP DP  RH WIND       PRES   REMARKS
NIAGARA FALLS  CLEAR     56  51  84 E5        29.65S
BUFFALO        PTCLDY    62  54  74 SE8       29.67S
DUNKIRK        CLEAR     63  55  75 SE13      29.65S
JAMESTOWN      CLEAR     59  52  77 S12       29.72R
WELLSVILLE     CLEAR     59  55  87 VRB5      29.79S
ROCHESTER      PTCLDY    61  55  81 SE3       29.71S
PENN YAN       CLEAR     60  54  80 S7        29.77R
$$

             KEY
       WCI = WIND CHILL INDEX
       VSB = VISIBILITY
       HX  = HEAT INDEX
$$




USA.gov is the U.S. government's official web portal to all federal, state and local government web resources and services.